Time,TemperatureF,DewpointF,PressureIn,WindDirection,WindDirectionDegrees,WindSpeedMPH,WindSpeedGustMPH,Humidity,HourlyPrecipIn,Conditions,Clouds,dailyrainin,SolarRadiationWatts/m^2,SoftwareType,DateUTC
2013-05-25 00:06:00,51.4,46.0,30.05,SW,225,1.0,-999.0,83,-99.99,,,0.00,0,weatherlink.com 1.10,2013-05-25 07:06:00,
2013-05-25 00:21:00,51.1,46.0,30.05,SSW,193,2.0,-999.0,83,-99.99,,,0.00,0,weatherlink.com 1.10,2013-05-25 07:21:00,
2013-05-25 00:36:00,50.8,46.0,30.05,SSE,165,4.0,-999.0,83,-99.99,,,0.00,0,weatherlink.com 1.10,2013-05-25 07:36:00,
2013-05-25 00:51:00,50.7,46.0,30.05,South,182,0.0,-999.0,84,-99.99,,,0.00,0,weatherlink.com 1.10,2013-05-25 07:51:00,
2013-05-25 01:06:00,50.5,46.0,30.05,SW,217,0.0,-999.0,84,-99.99,,,0.00,0,weatherlink.com 1.10,2013-05-25 08:06:00,
2013-05-25 01:21:00,50.5,46.0,30.05,SSW,192,1.0,-999.0,85,-99.99,,,0.00,0,weatherlink.com 1.10,2013-05-25 08:21:00,
2013-05-25 01:36:00,50.5,46.0,30.05,SSE,150,2.0,-999.0,85,-99.99,,,0.00,0,weatherlink.com 1.10,2013-05-25 08:36:00,
2013-05-25 01:51:00,50.5,46.0,30.05,South,187,0.0,-999.0,85,-99.99,,,0.00,0,weatherlink.com 1.10,2013-05-25 08:51:00,
2013-05-25 02:06:00,50.5,46.0,30.05,South,175,0.0,-999.0,85,-99.99,,,0.00,0,weatherlink.com 1.10,2013-05-25 09:06:00,
2013-05-25 02:21:00,50.7,46.0,30.04,SE,135,0.0,-999.0,85,-99.99,,,0.00,0,weatherlink.com 1.10,2013-05-25 09:21:00,
2013-05-25 02:36:00,50.7,46.0,30.04,SSE,151,0.0,-999.0,85,-99.99,,,0.00,0,weatherlink.com 1.10,2013-05-25 09:36:00,
2013-05-25 02:51:00,50.7,46.0,30.04,South,174,0.0,-999.0,85,-99.99,,,0.00,0,weatherlink.com 1.10,2013-05-25 09:51:00,
2013-05-25 03:06:00,50.7,47.0,30.04,SW,229,0.0,-999.0,86,-99.99,,,0.00,0,weatherlink.com 1.10,2013-05-25 10:06:00,
2013-05-25 03:21:00,50.5,47.0,30.04,WSW,245,0.0,-999.0,86,-99.99,,,0.00,0,weatherlink.com 1.10,2013-05-25 10:21:00,
2013-05-25 03:36:00,50.4,46.0,30.04,South,179,1.0,-999.0,86,-99.99,,,0.00,0,weatherlink.com 1.10,2013-05-25 10:36:00,
2013-05-25 03:51:00,50.4,46.0,30.04,SSE,157,3.0,-999.0,86,-99.99,,,0.00,0,weatherlink.com 1.10,2013-05-25 10:51:00,
2013-05-25 04:06:00,50.2,46.0,30.04,SSE,159,1.0,-999.0,86,-99.99,,,0.00,0,weatherlink.com 1.10,2013-05-25 11:06:00,
2013-05-25 04:21:00,50.2,46.0,30.04,SSE,163,0.0,-999.0,86,-99.99,,,0.00,0,weatherlink.com 1.10,2013-05-25 11:21:00,
2013-05-25 04:36:00,50.1,46.0,30.04,SSW,213,0.0,-999.0,86,-99.99,,,0.00,0,weatherlink.com 1.10,2013-05-25 11:36:00,
2013-05-25 04:51:00,49.9,46.0,30.04,South,174,0.0,-999.0,86,-99.99,,,0.00,0,weatherlink.com 1.10,2013-05-25 11:51:00,
2013-05-25 05:06:00,49.8,46.0,30.03,WSW,250,0.0,-999.0,86,-99.99,,,0.00,0,weatherlink.com 1.10,2013-05-25 12:06:00,
2013-05-25 05:21:00,49.6,46.0,30.04,SSW,213,1.0,-999.0,86,-99.99,,,0.00,7,weatherlink.com 1.10,2013-05-25 12:21:00,
2013-05-25 05:36:00,49.5,46.0,30.04,SW,219,0.0,-999.0,86,-99.99,,,0.00,7,weatherlink.com 1.10,2013-05-25 12:36:00,
2013-05-25 05:51:00,49.5,46.0,30.04,South,188,2.0,-999.0,86,-99.99,,,0.00,9,weatherlink.com 1.10,2013-05-25 12:51:00,
2013-05-25 06:06:00,49.4,45.0,30.04,SSE,167,3.0,-999.0,86,-99.99,,,0.00,19,weatherlink.com 1.10,2013-05-25 13:06:00,
2013-05-25 06:21:00,49.4,45.0,30.04,SE,129,0.0,-999.0,86,-99.99,,,0.00,32,weatherlink.com 1.10,2013-05-25 13:21:00,
2013-05-25 06:36:00,49.4,45.0,30.05,SE,140,0.0,-999.0,85,-99.99,,,0.00,40,weatherlink.com 1.10,2013-05-25 13:36:00,
2013-05-25 06:51:00,49.4,45.0,30.05,South,169,1.0,-999.0,85,-99.99,,,0.00,51,weatherlink.com 1.10,2013-05-25 13:51:00,
2013-05-25 07:06:00,49.5,45.0,30.05,WSW,248,1.0,-999.0,85,-99.99,,,0.00,69,weatherlink.com 1.10,2013-05-25 14:06:00,
2013-05-25 07:21:00,49.8,46.0,30.05,SSE,167,3.0,-999.0,85,-99.99,,,0.00,77,weatherlink.com 1.10,2013-05-25 14:21:00,
2013-05-25 07:36:00,49.9,45.0,30.05,SSE,150,2.0,-999.0,84,-99.99,,,0.00,67,weatherlink.com 1.10,2013-05-25 14:36:00,
2013-05-25 07:51:00,50.1,45.0,30.04,SE,142,3.0,-999.0,83,-99.99,,,0.00,65,weatherlink.com 1.10,2013-05-25 14:51:00,
2013-05-25 08:06:00,50.4,45.0,30.04,SW,217,4.0,-999.0,83,-99.99,,,0.00,135,weatherlink.com 1.10,2013-05-25 15:06:00,
2013-05-25 08:21:00,50.8,45.0,30.04,SSE,163,2.0,-999.0,81,-99.99,,,0.00,195,weatherlink.com 1.10,2013-05-25 15:21:00,
2013-05-25 08:36:00,51.7,46.0,30.04,SSE,159,0.0,-999.0,80,-99.99,,,0.00,244,weatherlink.com 1.10,2013-05-25 15:36:00,
2013-05-25 08:51:00,52.6,46.0,30.05,SSW,211,2.0,-999.0,78,-99.99,,,0.00,258,weatherlink.com 1.10,2013-05-25 15:51:00,
2013-05-25 09:06:00,53.2,45.0,30.05,SW,223,5.0,-999.0,75,-99.99,,,0.00,255,weatherlink.com 1.10,2013-05-25 16:06:00,
2013-05-25 09:21:00,53.8,46.0,30.05,SW,223,0.0,-999.0,74,-99.99,,,0.00,260,weatherlink.com 1.10,2013-05-25 16:21:00,
2013-05-25 09:36:00,54.4,46.0,30.05,SW,216,0.0,-999.0,73,-99.99,,,0.00,262,weatherlink.com 1.10,2013-05-25 16:36:00,
2013-05-25 09:51:00,54.7,46.0,30.05,SSE,160,2.0,-999.0,72,-99.99,,,0.00,265,weatherlink.com 1.10,2013-05-25 16:51:00,
2013-05-25 10:06:00,55.1,45.0,30.05,SW,221,2.0,-999.0,70,-99.99,,,0.00,309,weatherlink.com 1.10,2013-05-25 17:06:00,
2013-05-25 10:21:00,54.8,46.0,30.05,SW,228,1.0,-999.0,72,-99.99,,,0.00,320,weatherlink.com 1.10,2013-05-25 17:21:00,
2013-05-25 10:36:00,55.0,45.0,30.05,SSW,212,0.0,-999.0,69,-99.99,,,0.00,415,weatherlink.com 1.10,2013-05-25 17:36:00,
2013-05-25 10:51:00,55.1,45.0,30.05,SW,229,1.0,-999.0,68,-99.99,,,0.00,229,weatherlink.com 1.10,2013-05-25 17:51:00,
2013-05-25 11:06:00,55.3,45.0,30.04,East,94,0.0,-999.0,69,-99.99,,,0.00,422,weatherlink.com 1.10,2013-05-25 18:06:00,
2013-05-25 11:21:00,55.7,44.0,30.04,SW,223,0.0,-999.0,66,-99.99,,,0.00,332,weatherlink.com 1.10,2013-05-25 18:21:00,
2013-05-25 11:36:00,58.4,45.0,30.04,SSW,207,1.0,-999.0,62,-99.99,,,0.00,1125,weatherlink.com 1.10,2013-05-25 18:36:00,
2013-05-25 11:51:00,59.0,45.0,30.04,West,263,2.0,-999.0,60,-99.99,,,0.00,925,weatherlink.com 1.10,2013-05-25 18:51:00,
2013-05-25 12:06:00,57.6,44.0,30.04,NW,323,2.0,-999.0,61,-99.99,,,0.00,457,weatherlink.com 1.10,2013-05-25 19:06:00,
2013-05-25 12:21:00,57.6,44.0,30.04,SE,144,0.0,-999.0,60,-99.99,,,0.00,429,weatherlink.com 1.10,2013-05-25 19:21:00,
2013-05-25 12:36:00,59.6,43.0,30.04,WSW,246,3.0,-999.0,54,-99.99,,,0.00,661,weatherlink.com 1.10,2013-05-25 19:36:00,
2013-05-25 12:51:00,61.5,44.0,30.03,SE,138,2.0,-999.0,53,-99.99,,,0.00,696,weatherlink.com 1.10,2013-05-25 19:51:00,
2013-05-25 13:06:00,61.0,44.0,30.03,WSW,253,4.0,-999.0,54,-99.99,,,0.00,504,weatherlink.com 1.10,2013-05-25 20:06:00,
2013-05-25 13:21:00,61.6,45.0,30.03,SSW,211,3.0,-999.0,54,-99.99,,,0.00,1241,weatherlink.com 1.10,2013-05-25 20:21:00,
2013-05-25 13:36:00,61.5,43.0,30.03,SW,217,5.0,-999.0,52,-99.99,,,0.00,1172,weatherlink.com 1.10,2013-05-25 20:36:00,
2013-05-25 13:51:00,61.8,43.0,30.02,WSW,246,2.0,-999.0,51,-99.99,,,0.00,1060,weatherlink.com 1.10,2013-05-25 20:51:00,
2013-05-25 14:06:00,62.9,44.0,30.02,NNW,331,3.0,-999.0,51,-99.99,,,0.00,490,weatherlink.com 1.10,2013-05-25 21:06:00,
2013-05-25 14:21:00,63.9,43.0,30.02,West,275,2.0,-999.0,47,-99.99,,,0.00,1281,weatherlink.com 1.10,2013-05-25 21:21:00,
2013-05-25 14:36:00,63.4,43.0,30.01,West,278,4.0,-999.0,48,-99.99,,,0.00,496,weatherlink.com 1.10,2013-05-25 21:36:00,
2013-05-25 14:51:00,62.9,43.0,30.01,SSW,207,2.0,-999.0,49,-99.99,,,0.00,541,weatherlink.com 1.10,2013-05-25 21:51:00,
2013-05-25 15:06:00,62.7,42.0,30.01,West,263,6.0,-999.0,47,-99.99,,,0.00,617,weatherlink.com 1.10,2013-05-25 22:06:00,
2013-05-25 15:21:00,62.9,44.0,30.01,West,279,1.0,-999.0,50,-99.99,,,0.00,392,weatherlink.com 1.10,2013-05-25 22:21:00,
2013-05-25 15:36:00,62.7,44.0,30.01,West,263,10.0,-999.0,50,-99.99,,,0.00,410,weatherlink.com 1.10,2013-05-25 22:36:00,
2013-05-25 15:51:00,62.4,43.0,30.01,SW,222,0.0,-999.0,49,-99.99,,,0.00,406,weatherlink.com 1.10,2013-05-25 22:51:00,
2013-05-25 16:06:00,62.3,42.0,30.01,SSW,213,4.0,-999.0,48,-99.99,,,0.00,420,weatherlink.com 1.10,2013-05-25 23:06:00,
2013-05-25 16:21:00,61.8,42.0,30.01,SSW,211,4.0,-999.0,49,-99.99,,,0.00,260,weatherlink.com 1.10,2013-05-25 23:21:00,
2013-05-25 16:36:00,61.8,43.0,30.01,NW,321,4.0,-999.0,50,-99.99,,,0.00,323,weatherlink.com 1.10,2013-05-25 23:36:00,
2013-05-25 16:51:00,61.6,43.0,30.01,WSW,254,1.0,-999.0,50,-99.99,,,0.00,345,weatherlink.com 1.10,2013-05-25 23:51:00,
2013-05-25 17:06:00,61.8,43.0,30.00,WSW,242,4.0,-999.0,51,-99.99,,,0.00,218,weatherlink.com 1.10,2013-05-26 00:06:00,
2013-05-25 17:21:00,61.2,44.0,30.00,SW,218,4.0,-999.0,53,-99.99,,,0.00,258,weatherlink.com 1.10,2013-05-26 00:21:00,
2013-05-25 17:36:00,62.3,45.0,30.00,WNW,294,1.0,-999.0,54,-99.99,,,0.00,271,weatherlink.com 1.10,2013-05-26 00:36:00,
2013-05-25 17:51:00,61.0,45.0,30.00,WSW,254,3.0,-999.0,56,-99.99,,,0.00,202,weatherlink.com 1.10,2013-05-26 00:51:00,
2013-05-25 18:06:00,60.5,44.0,30.00,WNW,290,5.0,-999.0,55,-99.99,,,0.00,248,weatherlink.com 1.10,2013-05-26 01:06:00,
2013-05-25 18:21:00,60.9,45.0,30.00,West,263,3.0,-999.0,57,-99.99,,,0.00,197,weatherlink.com 1.10,2013-05-26 01:21:00,
2013-05-25 18:36:00,60.1,46.0,30.00,West,265,3.0,-999.0,60,-99.99,,,0.00,105,weatherlink.com 1.10,2013-05-26 01:36:00,
2013-05-25 18:51:00,59.5,46.0,30.00,WNW,290,2.0,-999.0,62,-99.99,,,0.00,79,weatherlink.com 1.10,2013-05-26 01:51:00,
2013-05-25 19:06:00,58.9,46.0,30.00,WNW,285,2.0,-999.0,63,-99.99,,,0.00,86,weatherlink.com 1.10,2013-05-26 02:06:00,
2013-05-25 19:21:00,59.0,46.0,29.99,West,268,0.0,-999.0,63,-99.99,,,0.00,113,weatherlink.com 1.10,2013-05-26 02:21:00,
2013-05-25 19:36:00,58.9,46.0,29.99,West,260,0.0,-999.0,63,-99.99,,,0.00,81,weatherlink.com 1.10,2013-05-26 02:36:00,
2013-05-25 19:51:00,58.6,46.0,30.00,WNW,286,2.0,-999.0,64,-99.99,,,0.00,39,weatherlink.com 1.10,2013-05-26 02:51:00,
2013-05-25 20:06:00,58.0,46.0,30.00,West,273,0.0,-999.0,65,-99.99,,,0.00,19,weatherlink.com 1.10,2013-05-26 03:06:00,
2013-05-25 20:21:00,57.0,46.0,29.99,West,273,0.0,-999.0,68,-99.99,,,0.00,11,weatherlink.com 1.10,2013-05-26 03:21:00,
2013-05-25 20:36:00,56.0,46.0,29.99,West,273,1.0,-999.0,70,-99.99,,,0.00,7,weatherlink.com 1.10,2013-05-26 03:36:00,
2013-05-25 20:51:00,55.6,47.0,29.99,West,273,0.0,-999.0,72,-99.99,,,0.00,0,weatherlink.com 1.10,2013-05-26 03:51:00,
2013-05-25 21:06:00,55.7,47.0,29.99,West,273,1.0,-999.0,72,-99.99,,,0.00,0,weatherlink.com 1.10,2013-05-26 04:06:00,
2013-05-25 21:21:00,55.9,47.0,29.99,West,276,0.0,-999.0,73,-99.99,,,0.00,0,weatherlink.com 1.10,2013-05-26 04:21:00,
2013-05-25 21:36:00,55.9,47.0,29.99,NW,304,0.0,-999.0,72,-99.99,,,0.00,0,weatherlink.com 1.10,2013-05-26 04:36:00,
2013-05-25 21:51:00,55.6,47.0,29.99,WNW,298,1.0,-999.0,72,-99.99,,,0.00,0,weatherlink.com 1.10,2013-05-26 04:51:00,
2013-05-25 22:06:00,55.1,47.0,29.99,West,268,1.0,-999.0,73,-99.99,,,0.00,0,weatherlink.com 1.10,2013-05-26 05:06:00,
2013-05-25 22:21:00,55.0,47.0,29.99,WSW,256,0.0,-999.0,75,-99.99,,,0.00,0,weatherlink.com 1.10,2013-05-26 05:21:00,
2013-05-25 22:36:00,54.4,47.0,29.98,WSW,256,0.0,-999.0,76,-99.99,,,0.00,0,weatherlink.com 1.10,2013-05-26 05:36:00,
2013-05-25 22:51:00,53.3,47.0,29.98,WSW,256,0.0,-999.0,79,-99.99,,,0.00,0,weatherlink.com 1.10,2013-05-26 05:51:00,
2013-05-25 23:06:00,52.9,47.0,29.98,WSW,256,0.0,-999.0,81,-99.99,,,0.00,0,weatherlink.com 1.10,2013-05-26 06:06:00,
2013-05-25 23:21:00,52.5,47.0,29.98,WSW,256,0.0,-999.0,82,-99.99,,,0.00,0,weatherlink.com 1.10,2013-05-26 06:21:00,
2013-05-25 23:36:00,52.2,47.0,29.97,WSW,255,0.0,-999.0,82,-99.99,,,0.00,0,weatherlink.com 1.10,2013-05-26 06:36:00,
2013-05-25 23:51:00,50.8,46.0,29.97,WSW,255,0.0,-999.0,84,-99.99,,,0.00,0,weatherlink.com 1.10,2013-05-26 06:51:00,